Location: Newark
(51.3000°N, 178.2000°W)
Time: 02:04:17
(UTC+00:00)

ISS - Pass Details

Date: 10 May 2021
Orbit: 417 x 422 km, 51.6° (Epoch: 15 June)

Event Time Altitude Azimuth Distance (km) Brightness Sun altitude
Exits shadow 11:39:40 11° 85° (E) 1,422 -1.1 -20.9°
Drops below altitude 10° 11:39:53 10° 84° (E) 1,509 -0.9 -20.9°
Sets 11:42:05 0° 76° (ENE) 2,377 0.2 -20.9°
